[[{"header":{"parameterUnit":"m.s-1","parameterCategory":1,"la1":30.2991,"la2":30.254,"lo1":-89.0895,"lo2":-89.0444,"dy":0.0017,"dx":0.0017,"nx":28,"ny":28,"refTime":"2025-11-08T03:00:00:Z","depth":0,"parameterNumber":2,"parameterNumberName":"U-component_of_WINDS"},"data":[0,0,0,0,0,0,0,0,0,0,0,0,0,0,0,0,0,0,0,0,0,0,0,0,0,0,0,0,0,0,0,0,0,0,0,0,0,0,0,0,0,0,0,0,0,0,0,0,0,0,0,0,0,0,0,0,0,0,2.4393,2.4393,0,2.4438,2.4438,2.4439,2.443,2.4429,2.4428,2.4427,2.4471,2.4473,2.4475,0,0,0,0,0,0,0,0,0,0,0,0,0,2.4298,2.43,2.4393,2.4393,2.4394,2.4438,2.4438,2.4439,2.443,2.4429,2.4428,2.4427,2.4471,2.4473,2.4475,0,0,0,0,0,0,0,0,0,0,0,0,0,2.4341,2.4301,2.4392,2.4395,2.4395,2.4437,2.4438,2.4439,2.443,2.4429,2.4427,2.4426,2.447,2.4473,2.4476,2.4518,0,0,2.4484,2.4486,0,0,0,0,0,0,0,0,2.4338,2.4344,2.4394,2.4394,2.4395,2.4427,2.4421,2.4465,2.443,2.4417,2.4427,2.4426,2.4457,2.4461,2.4472,2.452,2.4522,2.4485,2.4487,2.4488,2.4489,0,0,0,0,0,0,0,2.4336,2.4342,2.441,2.4394,2.4395,2.4393,2.4398,2.4429,2.4443,2.4418,2.4417,2.4423,2.4458,2.4469,2.4473,2.4523,2.4485,2.4487,2.4489,2.449,2.4609,2.4611,0,0,0,0,0,0,2.4332,2.434,2.4409,2.4412,2.4363,2.4396,2.4401,2.4418,2.4443,2.4446,2.4424,2.4422,2.4465,2.447,2.4475,2.4527,2.4488,2.449,2.4492,2.4608,2.461,2.4611,0,0,0,0,0,0,2.433,2.4338,2.4407,2.4376,2.4384,2.4399,2.4418,2.4419,2.4431,2.4447,2.445,2.4433,2.4464,2.4471,2.4508,2.4528,2.4492,2.4494,2.4606,2.4609,2.461,2.4631,0,0,0,0,0,0,2.4327,2.4338,2.4354,2.4376,2.4386,2.444,2.4419,2.4421,2.4437,2.4435,2.4457,2.446,2.4464,2.4504,2.4511,2.4532,2.4497,2.4604,2.4607,2.461,2.4629,2.4634,2.4638,0,0,0,0,0,2.4324,2.4357,2.4355,2.4363,2.4407,2.4441,2.4446,2.4451,2.4438,2.4455,2.4466,2.4459,2.4525,2.4507,2.4515,2.4537,2.4603,2.4607,2.461,2.4626,2.4633,2.4638,0,0,0,0,0,0,2.4335,2.436,2.4357,2.4399,2.4418,2.4439,2.446,2.4457,2.448,2.4477,2.4481,2.4487,2.4525,2.4535,2.4515,2.4581,2.4562,2.4567,2.4572,2.4578,2.4583,2.4579,2.4499,0,0,0,0,0,2.4343,2.4369,2.4389,2.4423,2.4433,2.4445,2.446,2.4462,2.4482,2.449,2.4503,2.4522,2.4547,2.4563,2.4587,2.4631,2.4636,2.465,2.4654,2.4658,2.4662,2.4687,2.4693,2.4622,2.4622,2.4622,0,0,2.4358,2.4375,2.4391,2.4426,2.4441,2.4468,2.4452,2.448,2.45,2.4494,2.453,2.4541,2.4562,2.4603,2.4621,2.4613,2.4683,2.4662,2.4665,2.4667,2.4691,2.4697,2.4704,2.4624,2.4624,2.4623,0,0,2.44,2.4415,2.4446,2.4462,2.4485,2.4493,2.4501,2.4523,2.453,2.4567,2.4563,2.4587,2.463,2.4646,2.466,2.471,2.4705,2.4718,2.4742,2.4766,2.4772,2.4777,2.4795,2.4801,2.4722,2.4722,2.4722,0,2.4415,2.4456,2.4462,2.4491,2.4507,2.4505,2.4536,2.4551,2.4581,2.4592,2.4582,2.4638,2.4652,2.4697,2.4709,2.472,2.4729,2.4715,2.477,2.4776,2.478,2.4798,2.4805,2.4724,2.4724,2.4723,2.4723,0,2.4474,2.4502,2.4525,2.4555,2.4574,2.4604,2.4615,2.4633,2.4634,2.4644,2.4682,2.4699,2.4727,2.4739,2.4739,2.4784,2.4778,2.4769,2.4751,2.4788,2.4805,2.4812,2.4726,2.4725,2.4725,2.4724,0,0,2.4522,2.4557,2.4565,2.4579,2.4606,2.4628,2.4659,2.4688,2.4703,2.4725,2.4751,2.4789,2.4781,2.4797,2.48,2.4821,2.4861,2.481,2.4811,2.4819,2.4912,2.4918,2.4925,2.4859,2.486,2.4861,2.491,0,2.4566,2.462,2.4628,2.4676,2.4703,2.4702,2.4729,2.4748,2.4759,2.4783,2.4794,2.4821,2.4809,2.4819,2.484,2.4852,2.488,2.4848,2.4883,2.4884,2.4877,2.4934,2.494,2.4985,2.4917,2.4918,2.4919,0,2.4623,2.4648,2.4699,2.4724,2.4736,2.476,2.4787,2.4811,2.4833,2.4839,2.4858,2.4859,2.4892,2.4873,2.4918,2.4897,2.4911,2.492,2.4922,2.4924,2.4903,2.4938,2.5,2.5007,2.4929,2.4928,2.4927,0,2.4653,2.4699,2.4736,2.4748,2.4778,2.4795,2.4809,2.483,2.4848,2.4872,2.4883,2.4911,2.4926,2.4947,2.4956,2.4941,2.5001,2.4982,2.5006,2.5006,2.5018,2.5017,2.5083,2.5028,2.5028,2.5028,2.5028,0,2.4701,2.4732,2.475,2.4772,2.4808,2.4817,2.4852,2.4865,2.4884,2.491,2.4911,2.4934,2.4945,2.497,2.4978,2.5014,2.5021,2.5027,2.5028,2.5026,2.5025,2.5035,2.5032,2.503,2.503,2.5029,2.5029,0,2.4739,2.4752,2.4793,2.4819,2.4826,2.4851,2.4873,2.4895,2.4906,2.4939,2.4947,2.4964,2.4994,2.5005,2.5042,2.5047,2.5089,2.5088,2.5081,2.5082,2.5105,2.5103,2.5179,2.519,2.5129,2.5129,2.513,0,2.4768,2.4793,2.4822,2.4839,2.4854,2.4881,2.49,2.491,2.4929,2.4958,2.4977,2.5007,2.5032,2.5081,2.5096,2.5125,2.5124,2.5149,2.5128,2.5126,2.5125,2.5123,2.5126,2.5153,2.5153,2.5154,2.5154,0,2.4819,2.4824,2.4851,2.488,2.4902,2.4926,2.4948,2.4963,2.4976,2.4998,2.5029,2.5049,2.5087,2.5118,2.5148,2.5161,2.516,2.5161,2.5168,2.5166,2.5161,2.5164,2.5091,2.5159,2.5158,2.5158,2.5158,2.5157,2.4853,2.4875,2.49,2.493,2.4948,2.497,2.4993,2.5007,2.5034,2.5067,2.5071,2.5105,2.5129,2.5169,2.5185,2.5211,2.5205,2.5215,2.5217,2.522,2.5221,2.5158,2.5217,2.5217,2.5217,2.5217,2.5217,0,2.4903,2.492,2.4947,2.498,2.5004,2.5002,2.5028,2.5048,2.5078,2.5101,2.5126,2.5163,2.5193,2.5212,2.5242,2.526,2.5261,2.5268,2.5266,2.527,2.5225,2.5216,2.5267,2.5267,2.5267,2.5267,2.5267,2.5267,2.4932,2.497,2.4979,2.5027,2.5043,2.5077,2.5092,2.5112,2.513,2.5172,2.5197,2.521,2.5232,2.5264,2.5292,2.5297,2.5308,2.5316,2.532,2.5278,2.5273,2.5267,2.5259,2.5318,2.5318,2.5362,2.5362,2.5362]},{"header":{"parameterUnit":"m.s-1","parameterCategory":1,"la1":30.2991,"la2":30.254,"lo1":-89.0895,"lo2":-89.0444,"dy":0.0017,"dx":0.0017,"nx":28,"ny":28,"refTime":"2025-11-08T03:00:00:Z","depth":0,"parameterNumber":3,"parameterNumberName":"V-component_of_WINDS"},"data":[0,0,0,0,0,0,0,0,0,0,0,0,0,0,0,0,0,0,0,0,0,0,0,0,0,0,0,0,0,0,0,0,0,0,0,0,0,0,0,0,0,0,0,0,0,0,0,0,0,0,0,0,0,0,0,0,0,0,-9.3889,-9.3891,0,-9.4077,-9.408,-9.4082,-9.3987,-9.3982,-9.3977,-9.3972,-9.4157,-9.4167,-9.4176,0,0,0,0,0,0,0,0,0,0,0,0,0,-9.344,-9.3448,-9.3889,-9.3891,-9.3893,-9.4077,-9.408,-9.4082,-9.3988,-9.3982,-9.3976,-9.397,-9.4154,-9.4165,-9.4177,0,0,0,0,0,0,0,0,0,0,0,0,0,-9.3632,-9.3451,-9.3888,-9.3869,-9.3869,-9.4077,-9.408,-9.4083,-9.3989,-9.3981,-9.3974,-9.3967,-9.415,-9.4164,-9.4178,-9.4414,0,0,-9.4222,-9.4228,0,0,0,0,0,0,0,0,-9.3621,-9.3648,-9.3869,-9.387,-9.3871,-9.4001,-9.3989,-9.4194,-9.3991,-9.3943,-9.3972,-9.3964,-9.4111,-9.4128,-9.4179,-9.4423,-9.4431,-9.4223,-9.4232,-9.4238,-9.4242,0,0,0,0,0,0,0,-9.3608,-9.364,-9.3963,-9.3872,-9.3873,-9.3848,-9.3867,-9.4027,-9.4066,-9.3947,-9.394,-9.3964,-9.411,-9.4166,-9.4183,-9.4433,-9.4223,-9.4235,-9.4244,-9.425,-9.488,-9.4888,0,0,0,0,0,0,-9.3597,-9.3629,-9.3957,-9.3969,-9.3726,-9.3862,-9.3884,-9.3967,-9.4064,-9.4072,-9.397,-9.3959,-9.4145,-9.4166,-9.4189,-9.4472,-9.4238,-9.4251,-9.4259,-9.4872,-9.4882,-9.4891,0,0,0,0,0,0,-9.3587,-9.3627,-9.3949,-9.3798,-9.3837,-9.3878,-9.3972,-9.3974,-9.403,-9.4082,-9.4087,-9.4021,-9.414,-9.4169,-9.436,-9.4477,-9.4258,-9.4271,-9.4863,-9.4875,-9.4887,-9.504,0,0,0,0,0,0,-9.3575,-9.3624,-9.3715,-9.38,-9.3845,-9.412,-9.3979,-9.3983,-9.4056,-9.4043,-9.4131,-9.4138,-9.4136,-9.4339,-9.4374,-9.4493,-9.4282,-9.4852,-9.4868,-9.4883,-9.5025,-9.5056,-9.5083,0,0,0,0,0,-9.3559,-9.3749,-9.3721,-9.3761,-9.3961,-9.4127,-9.4152,-9.4148,-9.4066,-9.4157,-9.4191,-9.4135,-9.4459,-9.4359,-9.4398,-9.4523,-9.4845,-9.4864,-9.4882,-9.5012,-9.505,-9.5082,0,0,0,0,0,0,-9.3673,-9.376,-9.3729,-9.3953,-9.4034,-9.411,-9.4225,-9.4189,-9.4292,-9.4276,-9.4264,-9.4285,-9.4483,-9.4522,-9.4409,-9.4756,-9.4639,-9.4666,-9.4724,-9.4761,-9.479,-9.4776,-9.4294,0,0,0,0,0,-9.3725,-9.3855,-9.3922,-9.4113,-9.4155,-9.4184,-9.4256,-9.4247,-9.4329,-9.4361,-9.4408,-9.4488,-9.4607,-9.4686,-9.4799,-9.503,-9.5047,-9.5135,-9.5164,-9.5188,-9.5211,-9.5337,-9.5376,-9.4952,-9.4951,-9.4951,0,0,-9.3832,-9.3896,-9.3978,-9.4138,-9.4199,-9.4332,-9.4213,-9.4358,-9.4456,-9.4382,-9.4567,-9.4604,-9.4692,-9.4904,-9.5,-9.4942,-9.5332,-9.5211,-9.523,-9.524,-9.536,-9.54,-9.5436,-9.4964,-9.4962,-9.496,0,0,-9.4096,-9.4157,-9.4324,-9.4389,-9.4485,-9.4503,-9.4543,-9.4626,-9.4649,-9.4835,-9.4783,-9.4897,-9.5103,-9.5169,-9.5229,-9.552,-9.5473,-9.5556,-9.5709,-9.5831,-9.5865,-9.5894,-9.5998,-9.6036,-9.5579,-9.558,-9.558,0,-9.4217,-9.4417,-9.4413,-9.4564,-9.4636,-9.4578,-9.4746,-9.4808,-9.4935,-9.4985,-9.4919,-9.5178,-9.5233,-9.546,-9.5531,-9.5582,-9.5626,-9.5546,-9.5861,-9.589,-9.5918,-9.6017,-9.6056,-9.5589,-9.5588,-9.5587,-9.5586,0,-9.4561,-9.4701,-9.4823,-9.4952,-9.5037,-9.5195,-9.5213,-9.5299,-9.5283,-9.5308,-9.5497,-9.5561,-9.5687,-9.574,-9.5723,-9.5965,-9.5927,-9.5862,-9.5743,-9.5968,-9.6061,-9.6099,-9.5603,-9.56,-9.5597,-9.5595,0,0,-9.4901,-9.5027,-9.5072,-9.513,-9.5232,-9.5339,-9.5494,-9.562,-9.5695,-9.5784,-9.5913,-9.609,-9.6031,-9.61,-9.609,-9.6198,-9.6425,-9.6119,-9.6121,-9.6174,-9.6696,-9.6745,-9.6789,-9.6395,-9.6402,-9.6408,-9.6689,0,-9.5172,-9.5448,-9.5449,-9.5702,-9.5831,-9.5779,-9.5914,-9.5991,-9.6018,-9.613,-9.6158,-9.6285,-9.6196,-9.6238,-9.6342,-9.6376,-9.653,-9.6355,-9.6513,-9.6519,-9.6494,-9.6838,-9.689,-9.7152,-9.6725,-9.6731,-9.6736,0,-9.5526,-9.5631,-9.5898,-9.5983,-9.6037,-9.6159,-9.6275,-9.6384,-9.6469,-9.6481,-9.6559,-9.6534,-9.669,-9.6567,-9.6782,-9.6663,-9.6728,-9.6754,-9.6764,-9.6779,-9.6641,-9.6862,-9.7235,-9.7275,-9.6793,-9.6788,-9.6784,0,-9.5748,-9.5956,-9.6143,-9.6194,-9.6298,-9.6385,-9.6432,-9.651,-9.6586,-9.6687,-9.6736,-9.6852,-9.6916,-9.7005,-9.7012,-9.6922,-9.7228,-9.7106,-9.7242,-9.7242,-9.7308,-9.7304,-9.7698,-9.735,-9.7349,-9.7348,-9.7348,0,-9.6051,-9.6217,-9.6244,-9.6359,-9.6543,-9.6542,-9.6723,-9.6761,-9.6832,-9.6952,-9.6913,-9.7026,-9.7027,-9.7142,-9.7148,-9.7325,-9.7353,-9.7367,-9.7366,-9.7371,-9.7369,-9.7413,-9.7395,-9.7359,-9.7357,-9.7355,-9.7353,0,-9.633,-9.6356,-9.6556,-9.664,-9.6665,-9.6796,-9.6866,-9.6975,-9.6999,-9.7152,-9.7187,-9.7225,-9.7358,-9.7374,-9.7528,-9.7531,-9.7745,-9.7725,-9.7718,-9.7715,-9.785,-9.7838,-9.8286,-9.8345,-9.7958,-9.7962,-9.7965,0,-9.6522,-9.6649,-9.6747,-9.6827,-9.688,-9.7007,-9.7086,-9.709,-9.7173,-9.7281,-9.7376,-9.7507,-9.7611,-9.7826,-9.7865,-9.7983,-9.7966,-9.8115,-9.7983,-9.7984,-9.7969,-9.7962,-9.7974,-9.814,-9.8145,-9.8148,-9.8151,0,-9.6861,-9.6868,-9.6984,-9.7107,-9.7202,-9.7298,-9.7387,-9.7453,-9.7468,-9.7563,-9.7701,-9.7782,-9.7942,-9.8071,-9.8188,-9.8233,-9.8195,-9.8192,-9.823,-9.8236,-9.8227,-9.8235,-9.7788,-9.8182,-9.8179,-9.8176,-9.8175,-9.8173,-9.7103,-9.7214,-9.7301,-9.7432,-9.7501,-9.7586,-9.7693,-9.7732,-9.7848,-9.7981,-9.7975,-9.8127,-9.8209,-9.8362,-9.8417,-9.8534,-9.8484,-9.8538,-9.8552,-9.8566,-9.858,-9.8209,-9.8555,-9.8554,-9.8553,-9.8552,-9.8552,0,-9.744,-9.7494,-9.7615,-9.7744,-9.7847,-9.7805,-9.7902,-9.799,-9.8126,-9.8207,-9.8312,-9.8471,-9.8597,-9.8647,-9.8769,-9.8854,-9.8839,-9.8886,-9.888,-9.8891,-9.8617,-9.8573,-9.8896,-9.8896,-9.8896,-9.8896,-9.8895,-9.8895,-9.7628,-9.7814,-9.7831,-9.805,-9.8102,-9.8254,-9.8313,-9.8391,-9.8456,-9.8636,-9.8742,-9.8775,-9.8844,-9.8971,-9.9085,-9.9096,-9.9143,-9.9198,-9.9201,-9.8945,-9.891,-9.8877,-9.8835,-9.9208,-9.9208,-9.9465,-9.9467,-9.9469]}]]